Time,TemperatureF,DewpointF,PressureIn,WindDirection,WindDirectionDegrees,WindSpeedMPH,WindSpeedGustMPH,Humidity,HourlyPrecipIn,Conditions,Clouds,dailyrainin,SoftwareType,DateUTC
2013-07-23 00:01:00,68.3,67.1,29.53,WNW,292,0.0,0.0,96,0.00,,,0.02,Wunderground v.1.15,2013-07-23 04:01:00,
2013-07-23 00:02:00,68.3,67.1,29.53,WNW,292,0.0,0.0,96,0.00,,,0.00,Wunderground v.1.15,2013-07-23 04:02:00,
2013-07-23 00:03:00,68.3,67.1,29.53,WNW,292,0.0,0.0,96,0.00,,,0.00,Wunderground v.1.15,2013-07-23 04:03:00,
2013-07-23 00:09:00,68.1,66.9,29.53,NE,56,0.0,2.0,96,0.00,,,0.00,Wunderground v.1.15,2013-07-23 04:09:00,
2013-07-23 00:12:00,68.0,66.8,29.53,NE,55,0.0,2.0,96,0.00,,,0.00,Wunderground v.1.15,2013-07-23 04:12:00,
2013-07-23 00:17:00,68.0,66.8,29.53,NE,55,0.0,2.0,96,0.00,,,0.00,Wunderground v.1.15,2013-07-23 04:17:00,
2013-07-23 00:22:00,67.9,66.7,29.53,ENE,61,0.0,0.0,96,0.00,,,0.00,Wunderground v.1.15,2013-07-23 04:22:00,
2013-07-23 00:28:00,67.7,66.5,29.53,ENE,61,0.0,0.0,96,0.00,,,0.00,Wunderground v.1.15,2013-07-23 04:28:00,
2013-07-23 00:34:00,67.6,66.4,29.52,ENE,61,0.0,0.0,96,0.00,,,0.00,Wunderground v.1.15,2013-07-23 04:34:00,
2013-07-23 00:39:00,67.4,66.2,29.52,ENE,61,0.0,0.0,96,0.00,,,0.00,Wunderground v.1.15,2013-07-23 04:39:00,
2013-07-23 00:45:00,67.3,66.1,29.52,ENE,61,0.0,0.0,96,0.00,,,0.00,Wunderground v.1.15,2013-07-23 04:45:00,
2013-07-23 00:50:00,67.2,66.0,29.51,ESE,108,0.0,1.0,96,0.00,,,0.00,Wunderground v.1.15,2013-07-23 04:50:00,
2013-07-23 00:56:00,67.0,65.8,29.51,NNE,31,0.0,1.0,96,0.00,,,0.00,Wunderground v.1.15,2013-07-23 04:56:00,
2013-07-23 01:01:00,66.9,65.7,29.51,NNE,32,0.0,0.0,96,0.00,,,0.00,Wunderground v.1.15,2013-07-23 05:01:00,
2013-07-23 01:07:00,66.7,65.5,29.51,NNE,32,0.0,0.0,96,0.00,,,0.00,Wunderground v.1.15,2013-07-23 05:07:00,
2013-07-23 01:12:00,66.6,65.4,29.51,North,351,0.0,0.0,96,0.00,,,0.00,Wunderground v.1.15,2013-07-23 05:12:00,
2013-07-23 01:18:00,66.5,65.3,29.51,East,88,0.0,0.0,96,0.00,,,0.00,Wunderground v.1.15,2013-07-23 05:18:00,
2013-07-23 01:24:00,66.4,65.2,29.51,NW,323,0.0,1.0,96,0.00,,,0.00,Wunderground v.1.15,2013-07-23 05:24:00,
2013-07-23 01:29:00,66.5,65.3,29.50,ESE,118,0.0,3.0,96,0.00,,,0.00,Wunderground v.1.15,2013-07-23 05:29:00,
2013-07-23 01:35:00,66.5,65.3,29.50,South,175,0.0,1.0,96,0.00,,,0.00,Wunderground v.1.15,2013-07-23 05:35:00,
2013-07-23 01:41:00,66.4,65.2,29.50,NNE,26,0.0,0.0,96,0.00,,,0.00,Wunderground v.1.15,2013-07-23 05:41:00,
2013-07-23 01:48:00,66.5,65.3,29.50,SE,146,0.0,0.0,96,0.00,,,0.00,Wunderground v.1.15,2013-07-23 05:48:00,
2013-07-23 01:54:00,66.6,65.1,29.50,SE,127,0.0,0.0,95,0.00,,,0.00,Wunderground v.1.15,2013-07-23 05:54:00,
2013-07-23 01:59:00,66.6,65.1,29.50,NNW,336,0.0,1.0,95,0.00,,,0.00,Wunderground v.1.15,2013-07-23 05:59:00,
2013-07-23 02:05:00,66.5,65.0,29.49,NNE,22,0.0,0.0,95,0.00,,,0.00,Wunderground v.1.15,2013-07-23 06:05:00,
2013-07-23 02:11:00,66.3,64.8,29.49,NNE,22,0.0,0.0,95,0.00,,,0.00,Wunderground v.1.15,2013-07-23 06:11:00,
2013-07-23 02:16:00,66.3,65.1,29.49,NNE,15,0.0,1.0,96,0.00,,,0.00,Wunderground v.1.15,2013-07-23 06:16:00,
2013-07-23 02:22:00,66.2,64.7,29.49,SSE,165,0.0,1.0,95,0.00,,,0.00,Wunderground v.1.15,2013-07-23 06:22:00,
2013-07-23 02:28:00,66.2,65.0,29.49,SSE,162,0.0,1.0,96,0.00,,,0.00,Wunderground v.1.15,2013-07-23 06:28:00,
2013-07-23 02:34:00,66.1,64.6,29.49,South,184,0.0,1.0,95,0.00,,,0.00,Wunderground v.1.15,2013-07-23 06:34:00,
2013-07-23 02:39:00,66.1,64.3,29.49,SSE,165,0.0,1.0,94,0.00,,,0.00,Wunderground v.1.15,2013-07-23 06:39:00,
2013-07-23 02:45:00,66.2,64.7,29.49,SSW,210,0.0,0.0,95,0.00,,,0.00,Wunderground v.1.15,2013-07-23 06:45:00,
2013-07-23 02:51:00,65.9,64.1,29.49,ESE,121,0.0,1.0,94,0.00,,,0.00,Wunderground v.1.15,2013-07-23 06:51:00,
2013-07-23 02:56:00,65.8,64.3,29.49,NNW,334,0.0,2.0,95,0.00,,,0.00,Wunderground v.1.15,2013-07-23 06:56:00,
2013-07-23 03:02:00,65.6,64.1,29.49,NW,326,0.0,2.0,95,0.00,,,0.00,Wunderground v.1.15,2013-07-23 07:02:00,
2013-07-23 03:08:00,65.4,63.9,29.50,NW,326,0.0,2.0,95,0.00,,,0.00,Wunderground v.1.15,2013-07-23 07:08:00,
2013-07-23 03:13:00,65.2,63.7,29.50,NW,326,0.0,0.0,95,0.00,,,0.00,Wunderground v.1.15,2013-07-23 07:13:00,
2013-07-23 03:19:00,65.0,63.5,29.50,NW,326,0.0,0.0,95,0.00,,,0.00,Wunderground v.1.15,2013-07-23 07:19:00,
2013-07-23 03:25:00,64.9,63.4,29.50,NW,326,0.0,1.0,95,0.00,,,0.00,Wunderground v.1.15,2013-07-23 07:25:00,
2013-07-23 03:31:00,64.8,63.3,29.50,NW,326,0.0,0.0,95,0.00,,,0.00,Wunderground v.1.15,2013-07-23 07:31:00,
2013-07-23 03:37:00,64.7,63.2,29.51,NW,326,0.0,0.0,95,0.00,,,0.00,Wunderground v.1.15,2013-07-23 07:37:00,
2013-07-23 03:42:00,64.5,63.0,29.50,NW,326,0.0,0.0,95,0.00,,,0.00,Wunderground v.1.15,2013-07-23 07:42:00,
2013-07-23 03:48:00,64.3,63.1,29.51,NW,326,0.0,0.0,96,0.00,,,0.00,Wunderground v.1.15,2013-07-23 07:48:00,
2013-07-23 03:54:00,64.2,63.0,29.51,NW,326,0.0,0.0,96,0.00,,,0.00,Wunderground v.1.15,2013-07-23 07:54:00,
2013-07-23 03:59:00,64.2,63.0,29.51,NW,326,0.0,2.0,96,0.00,,,0.00,Wunderground v.1.15,2013-07-23 07:59:00,
2013-07-23 04:05:00,64.1,62.9,29.52,NW,326,0.0,0.0,96,0.00,,,0.00,Wunderground v.1.15,2013-07-23 08:05:00,
2013-07-23 04:11:00,64.0,62.8,29.52,NW,326,0.0,0.0,96,0.00,,,0.00,Wunderground v.1.15,2013-07-23 08:11:00,
2013-07-23 04:16:00,63.8,62.6,29.52,NW,326,0.0,0.0,96,0.00,,,0.00,Wunderground v.1.15,2013-07-23 08:16:00,
2013-07-23 04:22:00,63.7,62.5,29.52,NW,326,0.0,0.0,96,0.00,,,0.00,Wunderground v.1.15,2013-07-23 08:22:00,
2013-07-23 04:28:00,63.7,62.5,29.52,NW,326,0.0,1.0,96,0.00,,,0.00,Wunderground v.1.15,2013-07-23 08:28:00,
2013-07-23 04:34:00,63.7,62.5,29.52,NW,326,0.0,0.0,96,0.00,,,0.00,Wunderground v.1.15,2013-07-23 08:34:00,
2013-07-23 04:39:00,63.7,62.8,29.52,NW,326,0.0,0.0,97,0.00,,,0.00,Wunderground v.1.15,2013-07-23 08:39:00,
2013-07-23 04:44:00,63.7,62.8,29.52,NW,326,0.0,0.0,97,0.00,,,0.00,Wunderground v.1.15,2013-07-23 08:44:00,
2013-07-23 04:50:00,63.7,62.8,29.52,NW,326,0.0,0.0,97,0.00,,,0.00,Wunderground v.1.15,2013-07-23 08:50:00,
2013-07-23 04:56:00,63.6,62.4,29.52,NW,326,0.0,1.0,96,0.00,,,0.00,Wunderground v.1.15,2013-07-23 08:56:00,
2013-07-23 05:01:00,63.5,62.3,29.52,NW,326,0.0,0.0,96,0.00,,,0.00,Wunderground v.1.15,2013-07-23 09:01:00,
2013-07-23 05:06:00,63.5,62.6,29.53,NW,326,0.0,0.0,97,0.00,,,0.00,Wunderground v.1.15,2013-07-23 09:06:00,
2013-07-23 05:12:00,63.5,62.6,29.53,NW,326,0.0,1.0,97,0.00,,,0.00,Wunderground v.1.15,2013-07-23 09:12:00,
2013-07-23 05:17:00,63.4,62.5,29.52,NW,326,0.0,1.0,97,0.00,,,0.00,Wunderground v.1.15,2013-07-23 09:17:00,
2013-07-23 05:23:00,63.4,62.5,29.52,NW,326,0.0,0.0,97,0.00,,,0.00,Wunderground v.1.15,2013-07-23 09:23:00,
2013-07-23 05:29:00,63.2,62.3,29.52,NW,326,0.0,1.0,97,0.00,,,0.00,Wunderground v.1.15,2013-07-23 09:29:00,
2013-07-23 05:35:00,63.0,61.8,29.52,NW,326,0.0,1.0,96,0.00,,,0.00,Wunderground v.1.15,2013-07-23 09:35:00,
2013-07-23 05:41:00,63.0,62.1,29.52,NW,326,0.0,0.0,97,0.00,,,0.00,Wunderground v.1.15,2013-07-23 09:41:00,
2013-07-23 05:48:00,62.9,62.0,29.52,NW,326,0.0,0.0,97,0.00,,,0.00,Wunderground v.1.15,2013-07-23 09:48:00,
2013-07-23 05:54:00,62.9,62.0,29.52,NW,326,0.0,2.0,97,0.00,,,0.00,Wunderground v.1.15,2013-07-23 09:54:00,
2013-07-23 06:00:00,62.8,61.9,29.53,NW,326,0.0,0.0,97,0.00,,,0.00,Wunderground v.1.15,2013-07-23 10:00:00,
2013-07-23 06:06:00,62.8,61.9,29.52,NW,326,0.0,0.0,97,0.00,,,0.00,Wunderground v.1.15,2013-07-23 10:06:00,
2013-07-23 06:11:00,62.7,61.8,29.53,NW,326,0.0,0.0,97,0.00,,,0.00,Wunderground v.1.15,2013-07-23 10:11:00,
2013-07-23 06:16:00,62.8,61.9,29.53,NW,326,0.0,0.0,97,0.00,,,0.00,Wunderground v.1.15,2013-07-23 10:16:00,
2013-07-23 06:21:00,62.7,61.8,29.52,NNW,338,0.0,0.0,97,0.00,,,0.00,Wunderground v.1.15,2013-07-23 10:21:00,
2013-07-23 06:27:00,62.6,61.7,29.52,NNW,338,0.0,0.0,97,0.00,,,0.00,Wunderground v.1.15,2013-07-23 10:27:00,
2013-07-23 06:33:00,62.8,61.9,29.53,NNW,338,0.0,1.0,97,0.00,,,0.00,Wunderground v.1.15,2013-07-23 10:33:00,
2013-07-23 06:39:00,62.9,62.0,29.53,NNW,329,0.0,1.0,97,0.00,,,0.00,Wunderground v.1.15,2013-07-23 10:39:00,
2013-07-23 06:44:00,62.9,62.0,29.53,NNW,329,0.0,1.0,97,0.00,,,0.00,Wunderground v.1.15,2013-07-23 10:44:00,
2013-07-23 06:50:00,62.8,61.9,29.53,NNW,329,0.0,0.0,97,0.00,,,0.00,Wunderground v.1.15,2013-07-23 10:50:00,
2013-07-23 06:55:00,62.8,61.9,29.53,NNW,329,0.0,0.0,97,0.00,,,0.00,Wunderground v.1.15,2013-07-23 10:55:00,
2013-07-23 07:00:00,62.8,61.9,29.54,NNW,329,0.0,0.0,97,0.00,,,0.00,Wunderground v.1.15,2013-07-23 11:00:00,
2013-07-23 07:06:00,62.9,62.0,29.53,NNW,329,0.0,0.0,97,0.00,,,0.00,Wunderground v.1.15,2013-07-23 11:06:00,
2013-07-23 07:11:00,62.8,61.9,29.53,NNW,329,0.0,0.0,97,0.00,,,0.00,Wunderground v.1.15,2013-07-23 11:11:00,
2013-07-23 07:17:00,62.9,62.0,29.54,NNW,329,0.0,0.0,97,0.00,,,0.00,Wunderground v.1.15,2013-07-23 11:17:00,
2013-07-23 07:22:00,63.0,62.1,29.54,NNW,329,0.0,0.0,97,0.00,,,0.00,Wunderground v.1.15,2013-07-23 11:22:00,
2013-07-23 07:28:00,63.2,62.3,29.54,NNW,329,0.0,0.0,97,0.00,,,0.00,Wunderground v.1.15,2013-07-23 11:28:00,
2013-07-23 07:34:00,63.2,62.3,29.54,NNW,329,0.0,1.0,97,0.00,,,0.00,Wunderground v.1.15,2013-07-23 11:34:00,
2013-07-23 07:39:00,63.4,62.8,29.54,NNW,329,0.0,1.0,98,0.00,,,0.00,Wunderground v.1.15,2013-07-23 11:39:00,
2013-07-23 07:44:00,63.6,63.0,29.55,NNW,329,0.0,0.0,98,0.00,,,0.00,Wunderground v.1.15,2013-07-23 11:44:00,
2013-07-23 07:50:00,63.5,62.9,29.55,NNW,329,0.0,0.0,98,0.00,,,0.00,Wunderground v.1.15,2013-07-23 11:50:00,
2013-07-23 07:56:00,63.4,62.5,29.54,NNW,329,0.0,0.0,97,0.00,,,0.00,Wunderground v.1.15,2013-07-23 11:56:00,
2013-07-23 08:01:00,63.5,62.6,29.54,NNW,329,0.0,0.0,97,0.00,,,0.00,Wunderground v.1.15,2013-07-23 12:01:00,
2013-07-23 08:06:00,63.6,62.7,29.54,NNW,329,0.0,0.0,97,0.00,,,0.00,Wunderground v.1.15,2013-07-23 12:06:00,
2013-07-23 08:11:00,63.9,63.0,29.54,NNW,341,0.0,0.0,97,0.00,,,0.00,Wunderground v.1.15,2013-07-23 12:11:00,
2013-07-23 08:17:00,64.1,63.5,29.55,NNW,341,0.0,1.0,98,0.00,,,0.00,Wunderground v.1.15,2013-07-23 12:17:00,
2013-07-23 08:23:00,64.3,63.4,29.54,NNW,341,0.0,0.0,97,0.00,,,0.00,Wunderground v.1.15,2013-07-23 12:23:00,
2013-07-23 08:29:00,64.4,63.5,29.55,NNW,341,0.0,0.0,97,0.00,,,0.00,Wunderground v.1.15,2013-07-23 12:29:00,
2013-07-23 08:35:00,64.7,64.1,29.55,NNW,341,0.0,0.0,98,0.00,,,0.00,Wunderground v.1.15,2013-07-23 12:35:00,
2013-07-23 08:40:00,64.9,64.3,29.55,NNW,341,0.0,0.0,98,0.00,,,0.00,Wunderground v.1.15,2013-07-23 12:40:00,
2013-07-23 08:45:00,65.2,64.6,29.55,North,350,0.0,0.0,98,0.00,,,0.00,Wunderground v.1.15,2013-07-23 12:45:00,
2013-07-23 08:50:00,65.5,64.9,29.55,North,350,0.0,0.0,98,0.00,,,0.00,Wunderground v.1.15,2013-07-23 12:50:00,
2013-07-23 08:56:00,65.8,64.9,29.55,North,350,0.0,1.0,97,0.00,,,0.00,Wunderground v.1.15,2013-07-23 12:56:00,
2013-07-23 09:02:00,66.1,65.2,29.55,North,350,0.0,0.0,97,0.00,,,0.00,Wunderground v.1.15,2013-07-23 13:02:00,
2013-07-23 09:07:00,66.3,65.4,29.56,North,350,0.0,0.0,97,0.00,,,0.00,Wunderground v.1.15,2013-07-23 13:07:00,
2013-07-23 09:13:00,66.7,65.8,29.56,North,350,0.0,0.0,97,0.00,,,0.00,Wunderground v.1.15,2013-07-23 13:13:00,
2013-07-23 09:18:00,67.0,66.1,29.56,North,350,0.0,0.0,97,0.00,,,0.00,Wunderground v.1.15,2013-07-23 13:18:00,
2013-07-23 09:24:00,67.3,66.4,29.56,North,350,0.0,0.0,97,0.00,,,0.00,Wunderground v.1.15,2013-07-23 13:24:00,
2013-07-23 09:29:00,67.7,66.5,29.55,North,350,0.0,0.0,96,0.00,,,0.00,Wunderground v.1.15,2013-07-23 13:29:00,
2013-07-23 09:35:00,68.0,66.5,29.55,North,350,0.0,0.0,95,0.00,,,0.00,Wunderground v.1.15,2013-07-23 13:35:00,
2013-07-23 09:41:00,68.5,67.0,29.55,North,350,0.0,0.0,95,0.00,,,0.00,Wunderground v.1.15,2013-07-23 13:41:00,
2013-07-23 09:48:00,69.0,66.3,29.56,North,350,0.0,0.0,91,0.00,,,0.00,Wunderground v.1.15,2013-07-23 13:48:00,
2013-07-23 09:54:00,69.7,66.3,29.55,North,350,0.0,1.0,89,0.00,,,0.00,Wunderground v.1.15,2013-07-23 13:54:00,
2013-07-23 10:00:00,70.4,67.3,29.55,North,350,0.0,0.0,90,0.00,,,0.00,Wunderground v.1.15,2013-07-23 14:00:00,
2013-07-23 10:06:00,70.9,66.5,29.55,North,360,0.0,3.0,86,0.00,,,0.00,Wunderground v.1.15,2013-07-23 14:06:00,
2013-07-23 10:11:00,71.5,67.1,29.55,NW,310,1.0,1.0,86,0.00,,,0.00,Wunderground v.1.15,2013-07-23 14:11:00,
2013-07-23 10:16:00,72.1,66.6,29.55,WNW,294,1.0,1.0,83,0.00,,,0.00,Wunderground v.1.15,2013-07-23 14:16:00,
2013-07-23 10:22:00,72.6,67.8,29.55,WNW,294,0.0,1.0,85,0.00,,,0.00,Wunderground v.1.15,2013-07-23 14:22:00,
2013-07-23 10:28:00,72.7,66.5,29.55,NNE,24,0.0,1.0,81,0.00,,,0.00,Wunderground v.1.15,2013-07-23 14:28:00,
2013-07-23 10:34:00,73.2,67.4,29.56,NW,323,0.0,0.0,82,0.00,,,0.00,Wunderground v.1.15,2013-07-23 14:34:00,
2013-07-23 10:39:00,73.7,66.8,29.56,NW,323,0.0,0.0,79,0.00,,,0.00,Wunderground v.1.15,2013-07-23 14:39:00,
2013-07-23 10:45:00,74.3,66.6,29.55,East,95,1.0,2.0,77,0.00,,,0.00,Wunderground v.1.15,2013-07-23 14:45:00,
2013-07-23 10:51:00,74.5,66.8,29.56,East,82,1.0,1.0,77,0.00,,,0.00,Wunderground v.1.15,2013-07-23 14:51:00,
2013-07-23 10:56:00,75.0,67.7,29.56,NNW,342,1.0,2.0,78,0.00,,,0.00,Wunderground v.1.15,2013-07-23 14:56:00,
2013-07-23 11:01:00,75.2,67.9,29.56,East,79,1.0,1.0,78,0.00,,,0.00,Wunderground v.1.15,2013-07-23 15:01:00,
2013-07-23 11:06:00,75.4,66.5,29.56,NE,44,1.0,8.0,74,0.00,,,0.00,Wunderground v.1.15,2013-07-23 15:06:00,
2013-07-23 11:12:00,75.7,67.2,29.56,NE,39,1.0,1.0,75,0.00,,,0.00,Wunderground v.1.15,2013-07-23 15:12:00,
2013-07-23 11:17:00,76.0,66.7,29.56,NNW,330,0.0,2.0,73,0.00,,,0.00,Wunderground v.1.15,2013-07-23 15:17:00,
2013-07-23 11:23:00,76.4,67.1,29.56,WNW,300,1.0,2.0,73,0.00,,,0.00,Wunderground v.1.15,2013-07-23 15:23:00,
2013-07-23 11:29:00,77.0,67.3,29.56,WNW,301,1.0,2.0,72,0.00,,,0.00,Wunderground v.1.15,2013-07-23 15:29:00,
2013-07-23 11:35:00,77.5,67.8,29.56,WNW,294,0.0,0.0,72,0.00,,,0.00,Wunderground v.1.15,2013-07-23 15:35:00,
2013-07-23 11:41:00,78.0,68.6,29.56,WNW,294,0.0,0.0,73,0.00,,,0.00,Wunderground v.1.15,2013-07-23 15:41:00,
2013-07-23 12:48:00,80.2,68.2,29.55,WSW,254,0.0,0.0,67,0.00,,,0.00,Wunderground v.1.15,2013-07-23 16:48:00,
2013-07-23 12:54:00,81.0,69.4,29.54,North,355,0.0,2.0,68,0.00,,,0.00,Wunderground v.1.15,2013-07-23 16:54:00,
2013-07-23 13:00:00,81.3,68.9,29.54,West,266,1.0,4.0,66,0.00,,,0.00,Wunderground v.1.15,2013-07-23 17:00:00,
2013-07-23 13:06:00,81.2,67.9,29.54,NE,53,1.0,4.0,64,0.00,,,0.00,Wunderground v.1.15,2013-07-23 17:06:00,
2013-07-23 13:11:00,81.7,68.8,29.54,SE,140,1.0,1.0,65,0.00,,,0.00,Wunderground v.1.15,2013-07-23 17:11:00,
2013-07-23 13:17:00,81.6,69.1,29.53,ESE,116,1.0,2.0,66,0.00,,,0.00,Wunderground v.1.15,2013-07-23 17:17:00,
2013-07-23 13:23:00,81.9,69.0,29.52,East,101,0.0,1.0,65,0.00,,,0.00,Wunderground v.1.15,2013-07-23 17:23:00,
2013-07-23 13:29:00,82.6,68.3,29.51,NW,311,1.0,2.0,62,0.00,,,0.00,Wunderground v.1.15,2013-07-23 17:29:00,
2013-07-23 13:35:00,82.8,71.2,29.51,ENE,65,1.0,1.0,68,0.00,,,0.00,Wunderground v.1.15,2013-07-23 17:35:00,
2013-07-23 13:40:00,83.0,69.1,29.50,NE,43,0.0,0.0,63,0.00,,,0.00,Wunderground v.1.15,2013-07-23 17:40:00,
2013-07-23 13:49:00,82.8,69.4,29.49,NE,55,1.0,1.0,64,0.00,,,0.01,Wunderground v.1.15,2013-07-23 17:49:00,
2013-07-23 13:54:00,83.2,69.3,29.49,West,272,0.0,1.0,63,0.00,,,0.01,Wunderground v.1.15,2013-07-23 17:54:00,
2013-07-23 13:59:00,83.4,71.3,29.49,WNW,302,0.0,2.0,67,0.00,,,0.01,Wunderground v.1.15,2013-07-23 17:59:00,
2013-07-23 14:05:00,83.4,69.5,29.49,NNE,14,0.0,0.0,63,0.00,,,0.01,Wunderground v.1.15,2013-07-23 18:05:00,
2013-07-23 14:10:00,83.3,70.3,29.49,North,355,0.0,0.0,65,0.00,,,0.01,Wunderground v.1.15,2013-07-23 18:10:00,
2013-07-23 14:15:00,83.0,69.1,29.49,NNW,331,1.0,2.0,63,0.00,,,0.01,Wunderground v.1.15,2013-07-23 18:15:00,
2013-07-23 14:21:00,83.2,69.3,29.48,NE,35,1.0,1.0,63,0.00,,,0.01,Wunderground v.1.15,2013-07-23 18:21:00,
2013-07-23 14:27:00,83.6,69.7,29.48,North,360,1.0,2.0,63,0.00,,,0.01,Wunderground v.1.15,2013-07-23 18:27:00,
2013-07-23 14:32:00,83.9,71.8,29.48,NW,324,1.0,1.0,67,0.00,,,0.01,Wunderground v.1.15,2013-07-23 18:32:00,
2013-07-23 14:38:00,84.3,69.4,29.48,NW,319,1.0,5.0,61,0.00,,,0.01,Wunderground v.1.15,2013-07-23 18:38:00,
2013-07-23 14:44:00,84.1,68.7,29.48,SSE,149,1.0,2.0,60,0.00,,,0.01,Wunderground v.1.15,2013-07-23 18:44:00,
2013-07-23 14:49:00,83.7,70.2,29.48,SE,130,1.0,1.0,64,0.00,,,0.01,Wunderground v.1.15,2013-07-23 18:49:00,
2013-07-23 14:55:00,83.6,69.7,29.47,NW,314,1.0,4.0,63,0.00,,,0.01,Wunderground v.1.15,2013-07-23 18:55:00,
2013-07-23 15:00:00,83.4,69.9,29.47,NNW,344,1.0,1.0,64,0.00,,,0.01,Wunderground v.1.15,2013-07-23 19:00:00,
2013-07-23 15:06:00,83.7,69.8,29.47,NNW,343,1.0,1.0,63,0.00,,,0.01,Wunderground v.1.15,2013-07-23 19:06:00,
2013-07-23 15:12:00,83.8,68.9,29.46,SE,132,1.0,1.0,61,0.00,,,0.01,Wunderground v.1.15,2013-07-23 19:12:00,
2013-07-23 15:18:00,83.2,69.8,29.46,West,275,0.0,1.0,64,0.00,,,0.01,Wunderground v.1.15,2013-07-23 19:18:00,
2013-07-23 15:24:00,82.9,69.5,29.46,ENE,70,1.0,3.0,64,0.00,,,0.01,Wunderground v.1.15,2013-07-23 19:24:00,
2013-07-23 15:30:00,82.6,70.1,29.46,NE,44,1.0,1.0,66,0.00,,,0.01,Wunderground v.1.15,2013-07-23 19:30:00,
2013-07-23 15:36:00,82.5,71.3,29.45,NE,44,1.0,2.0,69,0.00,,,0.01,Wunderground v.1.15,2013-07-23 19:36:00,
2013-07-23 15:41:00,82.5,70.0,29.45,North,355,0.0,0.0,66,0.00,,,0.01,Wunderground v.1.15,2013-07-23 19:41:00,
2013-07-23 15:48:00,82.4,70.3,29.45,West,277,1.0,1.0,67,0.00,,,0.01,Wunderground v.1.15,2013-07-23 19:48:00,
2013-07-23 15:54:00,81.9,69.4,29.45,NW,304,1.0,2.0,66,0.00,,,0.01,Wunderground v.1.15,2013-07-23 19:54:00,
2013-07-23 16:01:00,81.2,70.1,29.45,North,5,1.0,1.0,69,0.00,,,0.01,Wunderground v.1.15,2013-07-23 20:01:00,
2013-07-23 16:07:00,80.8,70.1,29.45,North,350,1.0,2.0,70,0.00,,,0.01,Wunderground v.1.15,2013-07-23 20:07:00,
2013-07-23 16:13:00,80.4,69.7,29.45,ESE,119,1.0,1.0,70,0.00,,,0.01,Wunderground v.1.15,2013-07-23 20:13:00,
2013-07-23 16:18:00,80.0,70.2,29.46,SE,142,0.0,1.0,72,0.00,,,0.01,Wunderground v.1.15,2013-07-23 20:18:00,
2013-07-23 16:24:00,79.7,69.5,29.45,SE,133,0.0,0.0,71,0.00,,,0.01,Wunderground v.1.15,2013-07-23 20:24:00,
2013-07-23 16:30:00,79.4,70.8,29.45,WNW,300,0.0,0.0,75,0.00,,,0.01,Wunderground v.1.15,2013-07-23 20:30:00,
2013-07-23 16:36:00,79.0,71.6,29.45,WNW,300,0.0,0.0,78,0.00,,,0.01,Wunderground v.1.15,2013-07-23 20:36:00,
2013-07-23 16:41:00,78.5,71.8,29.44,WNW,300,0.0,0.0,80,0.00,,,0.01,Wunderground v.1.15,2013-07-23 20:41:00,
2013-07-23 16:48:00,77.8,70.8,29.44,NW,304,0.0,0.0,79,0.00,,,0.01,Wunderground v.1.15,2013-07-23 20:48:00,
2013-07-23 16:54:00,77.6,71.3,29.44,SE,146,0.0,1.0,81,0.00,,,0.01,Wunderground v.1.15,2013-07-23 20:54:00,
2013-07-23 16:59:00,77.4,69.6,29.44,WNW,302,0.0,5.0,77,0.00,,,0.01,Wunderground v.1.15,2013-07-23 20:59:00,
2013-07-23 17:05:00,77.3,69.9,29.43,SE,124,1.0,4.0,78,0.00,,,0.01,Wunderground v.1.15,2013-07-23 21:05:00,
2013-07-23 17:10:00,77.2,69.4,29.44,SSE,157,1.0,1.0,77,0.00,,,0.01,Wunderground v.1.15,2013-07-23 21:10:00,
2013-07-23 17:16:00,77.1,69.3,29.44,NNW,344,0.0,2.0,77,0.00,,,0.01,Wunderground v.1.15,2013-07-23 21:16:00,
2013-07-23 17:21:00,77.0,70.0,29.43,NE,52,1.0,1.0,79,0.00,,,0.01,Wunderground v.1.15,2013-07-23 21:21:00,
2013-07-23 17:27:00,76.8,69.0,29.43,NNW,332,0.0,1.0,77,0.00,,,0.01,Wunderground v.1.15,2013-07-23 21:27:00,
2013-07-23 17:33:00,76.7,68.9,29.43,NW,309,0.0,0.0,77,0.00,,,0.01,Wunderground v.1.15,2013-07-23 21:33:00,
2013-07-23 17:39:00,76.7,68.9,29.43,North,11,0.0,3.0,77,0.00,,,0.01,Wunderground v.1.15,2013-07-23 21:39:00,
2013-07-23 17:45:00,76.9,69.1,29.43,NNW,346,0.0,0.0,77,0.00,,,0.01,Wunderground v.1.15,2013-07-23 21:45:00,
2013-07-23 17:50:00,77.1,68.6,29.42,North,360,0.0,1.0,75,0.00,,,0.01,Wunderground v.1.15,2013-07-23 21:50:00,
2013-07-23 17:55:00,77.3,69.1,29.43,NNE,19,0.0,1.0,76,0.00,,,0.01,Wunderground v.1.15,2013-07-23 21:55:00,
2013-07-23 18:01:00,77.5,68.2,29.42,NNE,19,0.0,0.0,73,0.00,,,0.01,Wunderground v.1.15,2013-07-23 22:01:00,
2013-07-23 18:07:00,77.3,68.0,29.43,North,5,0.0,1.0,73,0.00,,,0.01,Wunderground v.1.15,2013-07-23 22:07:00,
2013-07-23 18:12:00,77.1,67.4,29.43,WNW,288,1.0,1.0,72,0.00,,,0.01,Wunderground v.1.15,2013-07-23 22:12:00,
2013-07-23 18:17:00,76.8,66.7,29.44,NNW,329,1.0,2.0,71,0.00,,,0.01,Wunderground v.1.15,2013-07-23 22:17:00,
2013-07-23 18:23:00,76.5,66.4,29.44,ENE,65,1.0,3.0,71,0.00,,,0.01,Wunderground v.1.15,2013-07-23 22:23:00,
2013-07-23 18:28:00,76.2,66.9,29.44,NE,38,1.0,6.0,73,0.00,,,0.01,Wunderground v.1.15,2013-07-23 22:28:00,
2013-07-23 18:34:00,75.9,66.6,29.44,NE,53,2.0,3.0,73,0.00,,,0.01,Wunderground v.1.15,2013-07-23 22:34:00,
2013-07-23 18:40:00,75.7,66.8,29.44,NW,310,2.0,2.0,74,0.00,,,0.01,Wunderground v.1.15,2013-07-23 22:40:00,
2013-07-23 18:48:00,75.7,66.8,29.43,SSW,212,1.0,1.0,74,0.00,,,0.01,Wunderground v.1.15,2013-07-23 22:48:00,
2013-07-23 18:54:00,75.7,66.0,29.44,NW,311,1.0,2.0,72,0.00,,,0.01,Wunderground v.1.15,2013-07-23 22:54:00,
2013-07-23 19:00:00,75.7,66.0,29.43,NNE,12,0.0,0.0,72,0.00,,,0.01,Wunderground v.1.15,2013-07-23 23:00:00,
2013-07-23 19:06:00,75.7,66.8,29.43,North,355,0.0,0.0,74,0.00,,,0.01,Wunderground v.1.15,2013-07-23 23:06:00,
2013-07-23 19:11:00,75.6,66.7,29.44,North,355,0.0,1.0,74,0.00,,,0.01,Wunderground v.1.15,2013-07-23 23:11:00,
2013-07-23 19:17:00,75.3,66.0,29.44,WNW,291,0.0,2.0,73,0.00,,,0.01,Wunderground v.1.15,2013-07-23 23:17:00,
2013-07-23 19:22:00,75.2,66.3,29.43,NW,315,0.0,1.0,74,0.00,,,0.01,Wunderground v.1.15,2013-07-23 23:22:00,
2013-07-23 19:28:00,75.0,66.1,29.44,NW,315,0.0,1.0,74,0.00,,,0.01,Wunderground v.1.15,2013-07-23 23:28:00,
2013-07-23 19:34:00,74.9,66.1,29.44,NW,315,0.0,0.0,74,0.00,,,0.01,Wunderground v.1.15,2013-07-23 23:34:00,
2013-07-23 19:39:00,74.7,66.2,29.44,NW,315,0.0,0.0,75,0.00,,,0.01,Wunderground v.1.15,2013-07-23 23:39:00,
2013-07-23 19:45:00,74.5,66.1,29.43,NW,315,0.0,0.0,75,0.00,,,0.01,Wunderground v.1.15,2013-07-23 23:45:00,
2013-07-23 19:50:00,74.2,66.1,29.43,NW,315,0.0,0.0,76,0.00,,,0.01,Wunderground v.1.15,2013-07-23 23:50:00,
2013-07-23 19:55:00,73.7,66.0,29.44,NW,315,0.0,1.0,77,0.00,,,0.01,Wunderground v.1.15,2013-07-23 23:55:00,
2013-07-23 20:00:00,73.2,65.6,29.44,NW,324,0.0,1.0,77,0.00,,,0.01,Wunderground v.1.15,2013-07-24 00:00:00,
2013-07-23 20:06:00,73.0,65.4,29.43,NNE,14,1.0,5.0,77,0.00,,,0.01,Wunderground v.1.15,2013-07-24 00:06:00,
2013-07-23 20:11:00,72.9,64.9,29.44,ENE,60,1.0,2.0,76,0.00,,,0.01,Wunderground v.1.15,2013-07-24 00:11:00,
2013-07-23 20:17:00,72.8,65.2,29.44,NW,322,1.0,2.0,77,0.00,,,0.01,Wunderground v.1.15,2013-07-24 00:17:00,
2013-07-23 20:22:00,72.6,65.3,29.44,NW,322,1.0,1.0,78,0.00,,,0.01,Wunderground v.1.15,2013-07-24 00:22:00,
2013-07-23 20:28:00,72.5,65.6,29.44,West,276,1.0,3.0,79,0.00,,,0.01,Wunderground v.1.15,2013-07-24 00:28:00,
2013-07-23 20:33:00,72.5,65.2,29.44,NNW,331,1.0,2.0,78,0.00,,,0.01,Wunderground v.1.15,2013-07-24 00:33:00,
2013-07-23 20:38:00,72.6,65.3,29.44,NNW,336,0.0,2.0,78,0.00,,,0.01,Wunderground v.1.15,2013-07-24 00:38:00,
2013-07-23 20:44:00,72.5,65.2,29.44,NNW,336,0.0,0.0,78,0.00,,,0.01,Wunderground v.1.15,2013-07-24 00:44:00,
2013-07-23 20:49:00,72.4,65.5,29.44,NNW,336,0.0,1.0,79,0.00,,,0.01,Wunderground v.1.15,2013-07-24 00:49:00,
2013-07-23 20:54:00,72.0,65.5,29.45,NNW,336,0.0,1.0,80,0.00,,,0.01,Wunderground v.1.15,2013-07-24 00:54:00,
2013-07-23 21:00:00,71.5,65.4,29.45,North,10,0.0,1.0,81,0.00,,,0.01,Wunderground v.1.15,2013-07-24 01:00:00,
2013-07-23 21:06:00,71.0,65.2,29.45,North,355,0.0,1.0,82,0.00,,,0.01,Wunderground v.1.15,2013-07-24 01:06:00,
2013-07-23 21:11:00,70.9,65.1,29.45,North,355,0.0,0.0,82,0.00,,,0.01,Wunderground v.1.15,2013-07-24 01:11:00,
2013-07-23 21:17:00,70.8,65.4,29.45,North,355,0.0,0.0,83,0.00,,,0.01,Wunderground v.1.15,2013-07-24 01:17:00,
2013-07-23 21:23:00,70.8,65.0,29.45,North,355,0.0,0.0,82,0.00,,,0.01,Wunderground v.1.15,2013-07-24 01:23:00,
2013-07-23 21:28:00,70.9,65.5,29.45,North,355,0.0,0.0,83,0.00,,,0.01,Wunderground v.1.15,2013-07-24 01:28:00,
2013-07-23 21:34:00,71.0,65.6,29.44,North,360,0.0,0.0,83,0.00,,,0.01,Wunderground v.1.15,2013-07-24 01:34:00,
2013-07-23 21:40:00,71.1,65.7,29.44,NNE,25,0.0,0.0,83,0.00,,,0.01,Wunderground v.1.15,2013-07-24 01:40:00,
2013-07-23 21:49:00,70.8,65.7,29.45,NNE,24,0.0,0.0,84,0.00,,,0.01,Wunderground v.1.15,2013-07-24 01:49:00,
2013-07-23 21:54:00,70.5,65.4,29.46,NNE,24,0.0,0.0,84,0.00,,,0.01,Wunderground v.1.15,2013-07-24 01:54:00,
2013-07-23 22:00:00,70.3,65.9,29.46,NNE,24,0.0,0.0,86,0.00,,,0.01,Wunderground v.1.15,2013-07-24 02:00:00,
2013-07-23 22:06:00,70.0,65.6,29.46,NNE,24,0.0,0.0,86,0.00,,,0.01,Wunderground v.1.15,2013-07-24 02:06:00,
2013-07-23 22:11:00,69.7,65.3,29.46,NNE,19,0.0,0.0,86,0.00,,,0.01,Wunderground v.1.15,2013-07-24 02:11:00,
2013-07-23 22:17:00,69.4,65.0,29.46,NNE,19,0.0,0.0,86,0.00,,,0.01,Wunderground v.1.15,2013-07-24 02:17:00,
2013-07-23 22:48:00,69.8,65.4,29.47,North,349,0.0,2.0,86,0.00,,,0.01,Wunderground v.1.15,2013-07-24 02:48:00,
2013-07-23 22:55:00,69.8,65.4,29.47,ESE,116,0.0,2.0,86,0.00,,,0.01,Wunderground v.1.15,2013-07-24 02:55:00,
2013-07-23 23:00:00,70.1,65.7,29.46,SSE,155,0.0,0.0,86,0.00,,,0.01,Wunderground v.1.15,2013-07-24 03:00:00,
2013-07-23 23:06:00,70.2,65.5,29.46,South,170,0.0,1.0,85,0.00,,,0.01,Wunderground v.1.15,2013-07-24 03:06:00,
2013-07-23 23:12:00,70.3,65.6,29.46,South,169,0.0,0.0,85,0.00,,,0.01,Wunderground v.1.15,2013-07-24 03:12:00,
2013-07-23 23:17:00,70.3,65.9,29.46,SE,142,0.0,1.0,86,0.00,,,0.01,Wunderground v.1.15,2013-07-24 03:17:00,
2013-07-23 23:22:00,70.2,66.1,29.47,SSE,161,0.0,0.0,87,0.00,,,0.01,Wunderground v.1.15,2013-07-24 03:22:00,
2013-07-23 23:28:00,70.1,65.7,29.47,NW,323,0.0,2.0,86,0.00,,,0.01,Wunderground v.1.15,2013-07-24 03:28:00,
2013-07-23 23:33:00,70.1,65.7,29.47,NNE,22,0.0,1.0,86,0.00,,,0.01,Wunderground v.1.15,2013-07-24 03:33:00,
2013-07-23 23:39:00,70.1,65.7,29.47,East,91,0.0,1.0,86,0.00,,,0.01,Wunderground v.1.15,2013-07-24 03:39:00,
2013-07-23 23:44:00,70.2,66.1,29.47,SE,132,0.0,2.0,87,0.00,,,0.01,Wunderground v.1.15,2013-07-24 03:44:00,
2013-07-23 23:50:00,70.3,66.2,29.47,ENE,71,0.0,1.0,87,0.00,,,0.01,Wunderground v.1.15,2013-07-24 03:50:00,
2013-07-23 23:57:00,70.4,66.0,29.46,SE,138,0.0,4.0,86,0.00,,,0.01,Wunderground v.1.15,2013-07-24 03:57:00,